Alma, MI

12:22 AM EDT on August 24, 2017 (GMT -0400)
Gratiot Community

Weather History for KAMN - October, 2011

Change the Weather History Date:

Sunday, October 16, 2011

  Actual Average Record
Temperature  
Mean Temperature 50 °F -  
Max Temperature 57 °F 59 °F 82 °F (1989)
Min Temperature 44 °F 39 °F 25 °F (1991)
Degree Days  
Heating Degree Days 14    
Moisture  
Dew Point 41 °F    
Average Humidity 73    
Maximum Humidity 93    
Minimum Humidity 41    
Precipitation  
Precipitation 0.00 in - - ()
Sea Level Pressure  
Sea Level Pressure 29.73 in    
Wind  
Wind Speed 10 mph (WSW)    
Max Wind Speed 21 mph    
Max Gust Speed 31 mph    
Visibility 10 miles    
Events Rain    
Averages and records for this station are not official NWS values.
T = Trace of Precipitation, MM = Missing Value Source: NWS Daily Summary

Daily Weather History Graph

Daily Weather History Graph

Search for Another Location

Airport or City:

Trip Planner

Search our weather history database for the weather conditions in past years. The results will help you decide how hot, cold, wet, or windy it might be!

Date:

Astronomy

Oct. 16, 2011 Rise Set
Actual Time 7:53 AM EDT 6:54 PM EDT
Civil Twilight 7:24 AM EDT 7:23 PM EDT
Nautical Twilight 6:51 AM EDT 7:56 PM EDT
Astronomical Twilight 6:18 AM EDT 8:29 PM EDT
Moon 9:32 PM EDT (10/16) 12:17 PM EDT (10/16)
Length of Visible Light 11h 58m
Length of Day
11h 01m
Waning Gibbous, 82% of the Moon is Illuminated
Oct 16
Waning Gibbous
Oct 19
Last Quarter
Oct 26
New
Nov 2
First Quarter
Nov 10
Full

Hourly Weather History & Observations

Time (EDT) Temp. Windchill Dew Point Humidity Pressure Visibility Wind Dir Wind Speed Gust Speed Precip Events Conditions
12:12 AM 46.4 °F 42.4 °F 41.0 °F 81% 29.76 in 10.0 mi WSW 8.1 mph - N/A   Clear
12:32 AM 46.4 °F 41.5 °F 41.0 °F 81% 29.76 in 10.0 mi WSW 10.4 mph 18.4 mph N/A   Clear
12:52 AM 48.2 °F - 41.0 °F 76% 29.76 in 10.0 mi West 11.5 mph - N/A   Clear
1:12 AM 48.2 °F - 41.0 °F 76% 29.77 in 10.0 mi WSW 10.4 mph 18.4 mph N/A   Clear
1:32 AM 48.2 °F - 41.0 °F 76% 29.76 in 10.0 mi WSW 10.4 mph - N/A   Clear
1:53 AM 48.2 °F - 41.0 °F 76% 29.78 in 10.0 mi WSW 11.5 mph 19.6 mph N/A   Clear
2:13 AM 48.2 °F - 41.0 °F 76% 29.77 in 10.0 mi WSW 10.4 mph - N/A   Clear
2:33 AM 48.2 °F - 41.0 °F 76% 29.76 in 10.0 mi WSW 9.2 mph - N/A   Clear
2:48 AM 48.2 °F - 41.0 °F 76% 29.77 in 10.0 mi WSW 8.1 mph - N/A   Clear
3:08 AM 48.2 °F - 41.0 °F 76% 29.78 in 10.0 mi WSW 10.4 mph - N/A   Scattered Clouds
3:28 AM 50.0 °F - 41.0 °F 71% 29.76 in 10.0 mi WSW 8.1 mph - N/A   Mostly Cloudy
3:48 AM 50.0 °F - 41.0 °F 71% 29.76 in 10.0 mi WSW 10.4 mph 17.3 mph N/A   Mostly Cloudy
4:08 AM 50.0 °F - 41.0 °F 71% 29.77 in 10.0 mi WSW 13.8 mph 20.7 mph N/A   Scattered Clouds
4:49 AM 50.0 °F - 39.2 °F 66% 29.77 in 10.0 mi WSW 17.3 mph 27.6 mph N/A   Scattered Clouds
5:09 AM 51.8 °F - 37.4 °F 58% 29.77 in 10.0 mi West 12.7 mph 20.7 mph N/A   Mostly Cloudy
5:29 AM 50.0 °F - 37.4 °F 62% 29.77 in 10.0 mi West 12.7 mph 27.6 mph N/A   Mostly Cloudy
5:49 AM 50.0 °F - 39.2 °F 66% 29.77 in 10.0 mi West 12.7 mph 24.2 mph N/A   Overcast
6:09 AM 48.2 °F - 41.0 °F 76% 29.78 in 10.0 mi West 12.7 mph 19.6 mph N/A   Overcast
6:29 AM 46.4 °F 40.7 °F 41.0 °F 81% 29.78 in 10.0 mi West 12.7 mph 19.6 mph N/A Rain Light Rain
6:49 AM 46.4 °F 41.9 °F 41.0 °F 81% 29.77 in 10.0 mi WSW 9.2 mph - N/A   Scattered Clouds
7:09 AM 44.6 °F 40.2 °F 41.0 °F 87% 29.77 in 10.0 mi WSW 8.1 mph - N/A   Scattered Clouds
7:29 AM 44.6 °F 41.4 °F 42.8 °F 93% 29.78 in 10.0 mi West 5.8 mph - N/A   Mostly Cloudy
7:50 AM 44.6 °F 41.4 °F 42.8 °F 93% 29.76 in 10.0 mi WSW 5.8 mph - N/A   Light Drizzle
8:10 AM 44.6 °F 42.2 °F 42.8 °F 93% 29.76 in 10.0 mi WSW 4.6 mph - N/A   Overcast
8:30 AM 44.6 °F 41.4 °F 42.8 °F 93% 29.77 in 10.0 mi SW 5.8 mph - N/A   Overcast
8:50 AM 44.6 °F 43.1 °F 42.8 °F 93% 29.77 in 10.0 mi WSW 3.5 mph - N/A   Overcast
9:10 AM 44.6 °F 42.2 °F 42.8 °F 93% 29.76 in 10.0 mi WSW 4.6 mph - N/A   Overcast
9:30 AM 44.6 °F 43.1 °F 42.8 °F 93% 29.76 in 10.0 mi WSW 3.5 mph - N/A   Overcast
9:50 AM 46.4 °F 45.2 °F 44.6 °F 93% 29.75 in 10.0 mi SW 3.5 mph - N/A   Light Drizzle
10:10 AM 46.4 °F - 44.6 °F 93% 29.74 in 10.0 mi Calm Calm - N/A   Overcast
10:31 AM 46.4 °F 45.2 °F 44.6 °F 93% 29.74 in 10.0 mi WSW 3.5 mph - N/A   Overcast
10:51 AM 48.2 °F - 44.6 °F 87% 29.73 in 10.0 mi SW 5.8 mph - N/A   Overcast
11:11 AM 50.0 °F - 44.6 °F 82% 29.72 in 10.0 mi WSW 5.8 mph - N/A   Overcast
11:31 AM 51.8 °F - 46.4 °F 82% 29.71 in 10.0 mi West 8.1 mph - N/A   Overcast
12:11 PM 51.8 °F - 44.6 °F 76% 29.70 in 10.0 mi West 11.5 mph 18.4 mph N/A   Overcast
12:31 PM 53.6 °F - 44.6 °F 72% 29.69 in 10.0 mi WSW 15.0 mph 19.6 mph N/A   Overcast
12:51 PM 51.8 °F - 42.8 °F 71% 29.69 in 10.0 mi West 16.1 mph 24.2 mph N/A   Overcast
1:32 PM 51.8 °F - 42.8 °F 71% 29.67 in 10.0 mi West 13.8 mph 21.9 mph N/A   Overcast
1:52 PM 53.6 °F - 42.8 °F 67% 29.67 in 10.0 mi West 11.5 mph 18.4 mph N/A   Overcast
2:12 PM 53.6 °F - 42.8 °F 67% 29.66 in 10.0 mi West 15.0 mph 20.7 mph N/A   Overcast
2:32 PM 55.4 °F - 42.8 °F 63% 29.65 in 10.0 mi West 16.1 mph 24.2 mph N/A   Scattered Clouds
2:52 PM 55.4 °F - 41.0 °F 58% 29.64 in 10.0 mi WSW 17.3 mph 25.3 mph N/A   Clear
3:12 PM 55.4 °F - 39.2 °F 54% 29.64 in 10.0 mi West 19.6 mph 31.1 mph N/A   Scattered Clouds
3:32 PM 57.2 °F - 37.4 °F 48% 29.64 in 10.0 mi West 18.4 mph 28.8 mph N/A   Mostly Cloudy
3:52 PM 55.4 °F - 35.6 °F 47% 29.64 in 10.0 mi West 18.4 mph 25.3 mph N/A   Scattered Clouds
4:13 PM 55.4 °F - 35.6 °F 47% 29.65 in 10.0 mi West 17.3 mph 25.3 mph N/A   Clear
4:33 PM 55.4 °F - 33.8 °F 44% 29.65 in 10.0 mi West 13.8 mph 21.9 mph N/A   Clear
4:48 PM 55.4 °F - 32.0 °F 41% 29.65 in 10.0 mi WNW 20.7 mph 29.9 mph N/A   Clear
5:08 PM 55.4 °F - 32.0 °F 41% 29.66 in 10.0 mi West 18.4 mph 29.9 mph N/A   Clear
5:28 PM 53.6 °F - 33.8 °F 47% 29.66 in 10.0 mi West 16.1 mph 26.5 mph N/A   Scattered Clouds
5:48 PM 53.6 °F - 33.8 °F 47% 29.66 in 10.0 mi West 15.0 mph 23.0 mph N/A   Scattered Clouds
6:08 PM 53.6 °F - 33.8 °F 47% 29.66 in 10.0 mi West 16.1 mph 21.9 mph N/A   Clear
6:28 PM 51.8 °F - 33.8 °F 50% 29.66 in 10.0 mi WSW 16.1 mph 21.9 mph N/A   Scattered Clouds
6:49 PM 51.8 °F - 35.6 °F 54% 29.66 in 10.0 mi WSW 13.8 mph 25.3 mph N/A   Scattered Clouds
7:09 PM 50.0 °F - 35.6 °F 58% 29.66 in 10.0 mi WSW 11.5 mph 17.3 mph N/A   Clear
7:29 PM 50.0 °F - 35.6 °F 58% 29.66 in 10.0 mi WSW 11.5 mph 18.4 mph N/A   Clear
8:09 PM 50.0 °F - 37.4 °F 62% 29.67 in 10.0 mi WSW 9.2 mph - N/A   Scattered Clouds
8:29 PM 48.2 °F - 37.4 °F 66% 29.67 in 10.0 mi WSW 9.2 mph - N/A   Scattered Clouds
8:49 PM 48.2 °F - 37.4 °F 66% 29.67 in 10.0 mi WSW 8.1 mph - N/A   Scattered Clouds
9:09 PM 48.2 °F - 37.4 °F 66% 29.67 in 10.0 mi WSW 8.1 mph - N/A   Scattered Clouds
9:29 PM 46.4 °F 42.9 °F 37.4 °F 71% 29.68 in 10.0 mi WSW 6.9 mph - N/A   Scattered Clouds
9:50 PM 46.4 °F 42.4 °F 37.4 °F 71% 29.68 in 10.0 mi WSW 8.1 mph - N/A   Clear
10:10 PM 46.4 °F 42.9 °F 37.4 °F 71% 29.69 in 10.0 mi WSW 6.9 mph - N/A   Clear
10:30 PM 46.4 °F 42.4 °F 37.4 °F 71% 29.69 in 10.0 mi WSW 8.1 mph - N/A   Clear
10:50 PM 46.4 °F 41.9 °F 37.4 °F 71% 29.69 in 10.0 mi WSW 9.2 mph - N/A   Scattered Clouds
11:10 PM 46.4 °F 41.5 °F 37.4 °F 71% 29.68 in 10.0 mi WSW 10.4 mph - N/A   Scattered Clouds
11:30 PM 46.4 °F 40.7 °F 35.6 °F 66% 29.68 in 10.0 mi WSW 12.7 mph - N/A   Clear
11:50 PM 46.4 °F 40.7 °F 33.8 °F 62% 29.67 in 10.0 mi WSW 12.7 mph 16.1 mph N/A   Clear